Wind_Speed
32 30 29 27 25 25 23 20 18 17 18 18 18 19 18 15 18 19 19 19 17 16 14 13 13 12 11 10 10 9 7 5 4 4 4 5 4 4 4 5 6 6 7 7 6 5 5 4 4 5 5 6 7 7 7 7 7 8 8 8 8 8 8 7 6 5 5 4 3 2 2 2 2 3 4 5 6 6 7 8 9 9 9 9 9 10
34 30 26 26 28 28 27 26 24 21 20 20 18 19 21 21 21 21 20 19 19 18 17 16 14 13 12 11 10 9 8 6 6 6 6 6 5 5 4 5 6 6 7 7 6 6 6 6 5 5 6 7 8 8 8 8 8 9 9 9 9 9 8 7 6 5 5 4 3 3 4 3 4 4 5 6 7 7 8 9 10 10 11 11 11 12
36 29 25 28 31 33 33 31 29 25 22 22 21 21 24 25 24 24 24 22 22 22 20 18 16 15 14 12 11 10 8 7 6 7 7 7 7 6 5 5 6 6 7 7 6 7 7 7 7 7 7 7 7 7 7 7 8 8 8 9 9 8 8 6 5 5 5 5 5 5 5 5 5 6 7 8 8 9 10 10 11 11 12 12 13 13
35 28 27 31 34 35 36 34 32 29 25 24 24 23 24 26 27 27 26 24 24 24 22 20 18 16 15 13 11 10 10 8 7 7 8 9 9 9 7 7 7 7 7 7 7 7 7 7 7 7 8 7 6 6 5 6 6 7 8 8 8 8 7 6 6 6 6 6 6 7 7 7 8 8 9 10 10 11 12 12 13 14 14 14 15 15
35 30 31 35 36 36 37 36 34 30 25 23 23 22 23 26 27 27 26 24 24 24 24 22 20 18 16 14 11 10 9 8 6 7 8 10 11 10 9 8 8 8 8 8 8 8 8 8 8 8 8 8 7 6 5 5 5 6 7 7 7 8 8 7 6 7 7 8 8 9 9 9 10 11 11 12 13 13 14 15 16 17 17 17 18 18
37 33 35 38 38 38 38 37 35 31 26 23 22 21 22 26 28 28 27 26 25 25 24 23 21 20 17 15 13 10 9 7 6 6 7 9 11 11 10 10 9 9 10 10 9 8 9 9 9 8 8 8 8 7 6 6 5 6 6 7 7 8 8 8 8 8 9 9 10 11 11 12 12 13 13 14 15 16 17 19 19 20 20 21 21 20
39 35 37 40 40 41 40 38 36 34 30 24 21 20 23 28 30 30 29 28 28 25 22 22 22 22 20 19 17 14 13 11 8 6 6 7 9 10 9 9 9 9 10 10 10 10 9 9 9 9 9 9 9 8 8 7 7 7 7 8 8 9 10 10 10 10 11 12 12 13 13 14 15 16 16 17 18 19 21 22 23 23 23 24 23 22
40 36 38 42 42 42 42 39 37 36 32 24 20 21 25 29 30 31 30 29 28 25 23 24 24 25 26 24 22 19 17 15 10 6 5 5 6 8 6 5 6 7 9 10 11 11 11 10 10 10 10 11 10 10 10 10 9 9 9 9 10 11 11 12 12 13 13 14 14 15 16 16 17 18 20 20 22 23 24 24 25 25 26 25 24 23
41 38 39 42 43 43 40 38 37 37 33 24 22 24 27 29 29 31 31 30 28 28 28 27 26 28 29 26 23 22 20 16 12 7 3 3 5 5 5 5 5 6 8 9 10 12 12 12 11 11 11 11 11 12 12 12 11 11 12 12 13 13 14 14 14 15 15 15 16 16 17 18 19 20 22 23 24 25 26 26 26 26 26 25 24 23
43 42 41 45 47 43 39 39 40 40 36 28 26 27 28 31 32 32 33 32 31 32 31 29 28 29 28 26 25 24 22 18 14 11 7 6 5 4 3 5 6 7 7 8 10 12 13 14 13 13 12 12 13 14 14 13 13 14 14 15 15 15 15 16 16 16 16 17 17 17 18 20 21 23 24 25 26 27 26 26 25 24 23 23 23 22
45 45 45 48 48 44 42 44 43 44 42 35 33 31 30 34 35 35 35 34 35 36 33 29 27 28 28 27 27 26 21 18 17 17 15 13 9 5 4 5 5 7 7 7 9 11 12 14 15 15 14 14 16 16 16 16 16 16 16 17 17 17 17 17 18 18 18 18 19 19 20 21 22 23 24 24 24 24 24 23 22 21 21 21 21 21
48 49 48 49 48 46 47 49 47 48 47 43 40 37 35 35 37 38 38 38 40 38 34 30 28 30 27 22 25 25 19 20 22 20 19 17 12 8 8 7 6 7 9 8 8 9 11 13 14 15 16 17 18 18 19 18 17 17 17 16 16 16 17 18 18 19 19 20 20 20 20 21 22 22 22 21 21 21 21 20 20 19 20 20 21 21
50 50 49 49 49 49 50 52 52 52 52 48 45 43 40 40 40 41 42 42 43 40 34 31 30 32 24 13 20 24 21 22 21 19 19 16 13 12 12 11 10 10 10 9 8 9 10 11 12 12 15 17 18 18 19 19 18 17 17 17 17 17 17 18 18 19 20 20 19 19 19 20 20 20 19 19 19 20 20 19 19 20 20 20 21 22
51 51 51 50 51 52 53 54 54 55 54 51 49 46 45 44 44 45 45 44 43 39 34 32 34 32 20 12 19 23 20 21 19 18 19 16 14 15 15 15 15 13 12 10 9 10 10 11 10 10 11 13 16 17 18 18 18 18 18 18 19 19 18 19 20 20 20 19 18 19 19 19 19 18 18 18 19 20 20 20 20 20 21 21 22 23
52 52 52 52 53 53 54 55 54 54 53 51 48 46 46 46 44 44 46 44 43 39 34 36 37 27 14 13 20 22 22 22 20 18 20 18 16 17 17 17 15 12 10 9 10 10 11 10 10 9 10 11 13 16 17 18 19 19 20 20 21 20 20 19 20 20 19 18 18 19 18 18 18 18 18 19 20 21 22 23 22 23 24 23 23 24
53 53 52 52 54 54 54 55 55 56 57 54 51 49 50 48 43 42 44 44 42 41 39 41 39 26 16 16 19 22 23 24 22 21 22 21 19 18 16 14 13 12 10 10 10 10 10 9 8 8 10 11 13 15 16 17 19 20 21 21 21 21 20 19 18 18 18 18 18 18 18 18 19 19 20 21 21 22 23 25 26 26 27 27 26 26
54 54 52 52 56 56 55 56 56 58 60 58 56 55 52 48 44 43 45 45 44 45 45 45 41 32 25 21 20 20 20 20 21 21 20 20 19 19 16 13 13 13 11 10 10 11 11 10 8 9 10 12 13 14 15 16 17 18 19 19 19 20 19 18 17 16 17 17 17 17 18 19 20 21 22 23 23 24 25 27 28 28 28 29 29 28
52 53 51 52 56 57 57 57 57 60 61 60 59 54 50 50 49 46 47 48 48 49 49 48 44 39 35 29 24 22 21 19 19 18 18 17 17 16 13 12 13 12 12 13 13 13 13 11 10 11 12 13 14 14 14 15 15 16 16 16 16 16 16 16 16 15 16 16 16 16 18 19 21 22 23 24 25 26 27 29 29 29 29 30 30 30
50 52 52 53 54 57 58 60 61 62 63 64 60 55 54 56 54 50 50 52 52 53 53 50 47 44 39 33 26 24 23 20 17 17 17 15 13 11 9 9 10 11 13 13 13 14 13 11 12 12 13 14 14 14 14 14 13 13 13 13 13 13 14 15 15 15 15 15 15 16 18 19 21 22 23 24 25 25 26 28 29 29 30 31 31 31
51 51 52 53 54 56 59 63 64 64 65 66 64 61 61 60 57 54 53 52 53 54 54 52 50 46 39 33 28 26 24 20 15 15 16 13 11 10 9 8 9 11 13 14 15 15 14 13 13 13 13 14 14 15 15 14 12 11 11 11 11 12 13 13 14 13 13 14 15 17 18 20 22 23 23 24 24 25 27 28 29 30 30 31 32 33
51 52 52 53 54 56 59 63 64 64 66 67 67 67 66 63 61 59 55 54 54 55 54 53 53 48 38 32 29 27 25 21 16 15 17 14 12 11 9 9 11 13 13 15 16 16 15 15 15 14 15 15 14 14 14 14 13 12 12 11 11 11 11 11 12 12 13 14 15 17 20 22 22 23 24 25 26 27 30 31 32 33 34 33 34 36
52 54 53 52 54 57 59 60 61 63 66 67 67 67 66 65 63 61 60 58 56 56 56 55 56 50 40 34 31 28 27 23 18 16 14 12 11 12 11 12 14 15 13 15 17 18 18 18 17 17 18 16 14 14 14 14 12 12 11 11 10 9 10 11 12 12 13 14 16 19 21 23 23 24 26 27 28 30 33 34 35 37 37 36 37 38
50 52 52 52 54 56 57 57 58 60 64 67 68 67 66 65 65 64 63 60 57 58 58 57 58 54 44 37 31 29 27 24 21 18 14 12 13 14 15 17 18 17 16 18 20 21 21 20 20 20 20 18 15 14 14 13 12 12 11 9 8 8 10 11 11 12 14 16 18 20 22 23 25 27 29 30 30 31 32 34 36 38 38 39 41 41
47 51 52 53 55 55 54 54 55 57 59 65 69 69 68 67 66 65 64 61 58 59 59 58 59 56 48 39 32 29 26 23 23 22 17 15 16 17 20 22 20 18 18 20 22 24 24 22 22 22 21 19 16 15 15 13 12 11 10 8 8 9 11 12 13 14 16 19 21 23 24 25 26 27 26 26 27 27 28 32 35 37 38 40 42 42
46 49 51 51 53 54 54 54 56 58 59 62 66 68 69 68 67 67 66 64 63 63 61 60 61 58 50 40 34 32 29 25 24 24 22 20 18 19 22 23 21 20 21 20 21 24 24 23 23 23 22 20 17 16 15 13 12 11 10 10 10 11 13 14 15 17 20 21 23 25 26 26 28 28 25 24 26 26 29 32 34 36 39 40 41 42
45 47 49 50 52 56 57 58 60 60 60 62 63 65 67 69 69 70 70 69 69 67 64 63 63 58 49 40 35 35 35 32 27 23 22 22 21 20 22 23 23 24 24 22 22 23 24 24 25 24 22 19 17 16 15 14 14 13 12 12 12 13 15 16 18 19 21 23 25 26 26 27 30 32 31 29 29 30 32 35 35 36 38 40 41 42
45 46 48 50 52 54 56 58 58 56 56 59 60 60 63 66 69 71 71 72 71 69 69 66 62 56 48 40 36 36 38 36 30 22 20 20 20 22 24 26 27 27 23 21 22 23 24 26 26 24 21 19 18 17 16 15 15 14 13 12 13 15 15 17 19 20 22 24 25 25 27 29 31 35 36 35 34 36 37 37 37 37 40 42 41 40
45 46 47 48 50 51 51 52 52 50 50 52 54 56 57 60 64 67 70 70 68 69 69 64 58 55 49 42 38 37 37 37 33 28 23 20 21 23 25 26 28 26 22 19 21 23 25 27 26 24 21 19 19 18 18 16 14 13 12 13 14 15 16 17 19 21 22 23 23 24 27 30 33 37 39 38 37 39 39 37 38 40 42 43 41 40
45 45 45 46 47 48 47 47 47 47 47 46 47 49 51 54 59 62 65 65 66 69 67 60 55 53 49 43 40 38 36 35 32 27 22 20 22 23 23 25 26 24 21 19 20 22 24 26 25 23 21 19 18 18 18 16 14 13 13 15 16 16 17 18 19 20 21 21 22 24 27 31 34 37 40 40 38 39 39 37 37 39 41 41 42 41
46 45 44 44 45 46 45 43 43 44 45 45 46 46 46 49 54 57 60 62 64 66 65 60 57 53 49 45 42 39 36 34 32 28 21 19 21 22 24 25 24 23 21 20 19 19 21 23 23 23 22 20 19 18 16 15 14 13 14 16 17 18 18 19 20 21 21 22 24 27 29 32 34 37 40 40 39 40 41 39 39 39 40 40 39 35
48 46 44 44 44 45 43 41 40 41 42 44 46 47 46 46 50 54 56 58 61 63 62 61 60 55 49 45 43 42 39 36 34 30 25 22 22 23 24 24 23 23 22 21 20 19 20 22 23 23 22 22 21 19 17 15 14 14 16 18 20 20 20 22 23 23 23 25 27 29 32 33 35 37 39 41 42 43 41 39 38 38 36 35 34 31
49 48 46 44 44 44 42 39 40 40 39 42 47 49 48 48 50 52 54 56 59 59 59 60 61 57 50 45 44 43 40 37 33 30 27 25 24 23 23 23 22 23 22 21 21 21 22 23 24 23 22 23 23 22 19 17 17 18 20 22 23 24 24 25 27 27 28 29 30 31 34 35 36 37 40 42 44 42 37 34 36 36 34 33 34 34
49 49 47 45 45 45 42 41 42 41 41 46 50 51 51 50 50 52 54 56 57 57 58 59 59 56 51 46 44 42 39 37 33 29 28 28 28 26 24 23 23 23 23 23 23 23 23 24 24 24 24 25 25 24 23 21 22 24 25 26 26 27 28 29 31 32 32 32 32 34 36 38 38 38 40 43 43 41 36 33 34 36 36 36 35 35
51 49 47 45 45 45 44 43 44 44 46 50 52 53 52 50 50 52 54 55 56 57 58 58 56 55 52 46 41 39 38 36 33 30 29 29 30 29 26 26 26 26 26 28 28 28 27 27 27 27 27 28 28 28 27 26 27 28 29 29 30 29 30 32 34 35 34 33 35 37 39 40 40 40 42 43 43 42 39 34 33 35 36 35 35 37
51 51 49 45 44 45 45 44 45 47 48 49 49 50 50 50 49 50 53 55 56 56 58 57 54 53 51 44 38 37 38 36 34 31 29 29 29 28 28 28 28 28 30 32 32 32 31 30 29 29 31 31 31 31 30 30 31 31 32 32 32 32 32 34 37 37 35 35 37 40 42 43 43 42 43 44 45 43 38 34 34 34 33 33 35 36
52 50 48 45 44 45 46 46 48 48 48 48 48 46 47 48 50 51 54 56 57 57 57 56 53 51 48 43 38 38 38 38 36 34 32 30 28 27 28 28 29 31 33 33 33 34 33 32 32 32 33 34 33 33 32 33 33 33 35 35 35 35 36 37 38 37 37 39 41 43 45 45 44 44 44 45 46 44 39 35 35 33 31 31 33 32
56 51 49 47 45 46 48 50 51 49 47 47 47 46 45 46 48 50 53 56 57 58 57 54 51 49 46 42 40 39 38 39 39 37 34 31 28 27 28 29 31 34 35 35 36 36 35 35 35 35 35 35 35 35 35 35 36 36 37 38 38 38 39 39 38 38 40 44 46 47 48 47 46 46 46 46 45 43 41 37 35 32 30 30 31 29
58 53 51 51 50 48 49 51 51 50 48 47 46 45 43 44 45 48 52 56 57 57 55 52 49 48 45 42 42 41 39 39 39 38 36 33 30 30 31 31 34 37 38 39 39 37 37 37 37 36 37 37 37 37 37 37 38 38 38 40 41 42 41 40 39 41 44 46 48 50 50 49 48 48 47 45 44 42 41 38 35 32 31 30 30 28
60 55 51 52 53 50 50 52 52 51 50 48 46 43 40 40 41 43 49 56 57 55 52 49 47 46 44 42 42 40 38 39 39 38 36 34 33 34 34 35 37 39 40 41 40 39 39 40 39 38 38 38 38 38 38 39 39 40 40 41 42 43 42 42 42 44 46 47 49 51 51 50 49 48 47 45 43 41 40 38 35 33 32 31 28 28
59 57 52 51 53 52 50 51 51 50 50 48 46 43 38 35 36 40 48 54 54 51 49 47 45 44 42 41 40 39 38 39 39 38 35 34 35 37 37 38 39 41 43 43 42 41 41 41 41 39 38 38 39 40 40 41 41 41 41 42 43 43 44 45 45 46 46 48 50 51 51 50 50 48 46 45 43 41 39 38 36 35 33 31 28 27
54 56 54 52 53 53 51 48 46 47 48 47 45 42 37 34 35 41 48 51 49 48 47 44 42 41 41 41 40 39 39 39 38 36 35 35 38 40 40 40 41 42 43 44 43 42 41 40 39 38 37 39 40 42 43 44 43 42 43 43 43 43 45 47 47 47 47 49 51 52 52 50 48 46 44 44 42 40 39 37 36 35 33 30 28 25
49 51 54 52 50 52 52 47 43 44 45 45 44 41 36 35 37 40 43 45 47 47 46 43 40 39 39 40 39 39 39 38 38 37 37 38 39 40 40 41 41 41 43 44 43 42 39 38 37 36 38 40 42 44 46 46 45 46 46 46 45 46 47 49 48 48 50 51 52 52 50 47 44 43 43 43 41 39 38 37 36 34 32 30 27 23
43 45 50 51 48 49 50 47 42 40 41 42 43 41 37 34 34 33 35 40 45 45 44 44 42 39 37 37 37 38 37 35 35 38 39 39 40 40 39 39 39 40 41 41 40 38 37 37 39 41 44 46 46 47 48 47 48 49 49 48 47 48 49 50 51 52 53 53 52 50 46 43 41 41 41 40 39 38 37 36 36 34 32 30 27 23
41 42 46 49 48 48 48 45 41 39 38 39 40 40 38 34 31 29 30 34 40 43 43 43 42 40 38 36 36 36 34 32 33 36 37 38 39 40 40 39 38 38 38 38 37 37 39 42 46 49 51 51 51 50 49 49 50 50 49 48 49 50 50 51 54 54 53 51 48 44 41 39 39 39 39 39 38 37 36 36 35 34 33 31 29 26
41 40 38 41 45 46 44 42 40 37 37 39 40 40 38 34 30 29 30 32 36 39 41 40 39 38 37 37 36 35 34 34 35 37 39 39 40 41 42 42 41 39 38 39 40 42 44 46 48 49 50 50 50 50 51 51 50 47 47 49 51 51 50 51 52 51 48 45 43 41 39 39 39 39 38 38 37 37 36 36 35 35 34 33 32 30
35 35 33 34 41 45 42 41 39 36 35 39 43 43 40 36 35 35 36 35 35 36 37 38 37 37 37 38 38 38 39 39 39 40 42 43 43 43 45 48 50 46 43 43 44 43 42 43 44 45 46 48 49 49 51 51 49 48 50 53 53 52 51 50 48 44 42 41 40 40 40 41 41 40 39 38 38 37 37 36 36 36 36 35 34 32
29 29 29 30 35 41 42 42 39 35 35 39 44 46 43 41 42 43 42 41 39 36 36 37 38 39 40 41 41 41 43 44 43 41 41 41 41 39 40 44 49 48 44 44 44 41 39 40 42 43 44 45 47 49 50 50 50 51 53 54 53 51 50 47 43 40 39 40 40 40 41 41 40 39 38 38 38 38 37 36 36 36 36 36 35 34
31 29 28 28 30 35 40 42 39 35 37 41 45 48 48 47 47 47 45 44 43 40 38 39 40 40 41 42 42 41 42 44 44 41 38 38 37 36 34 35 39 40 40 41 40 39 38 40 41 42 43 45 47 49 49 49 49 50 50 50 48 46 43 41 40 40 40 41 41 40 40 40 39 39 39 38 37 37 36 36 36 36 36 36 35 33
34 31 29 28 28 29 35 41 40 37 38 39 41 47 50 48 47 48 47 45 44 43 41 42 42 42 41 41 41 40 40 42 42 41 40 38 38 37 36 35 35 37 38 38 37 38 39 38 38 39 40 42 43 44 44 43 43 43 42 41 39 38 38 39 41 41 41 41 40 40 40 40 40 39 38 37 37 37 37 37 37 37 37 36 32 29
34 32 29 28 27 27 30 34 36 36 37 36 37 44 48 45 42 44 47 47 45 45 45 45 46 45 43 41 41 41 41 40 40 40 40 39 38 37 36 36 37 38 39 40 40 40 39 37 36 37 37 37 38 38 38 36 36 36 36 35 35 36 38 40 41 41 41 40 39 39 40 41 42 43 41 39 38 38 37 38 38 37 35 32 28 27
33 31 29 27 26 26 26 27 30 35 37 37 36 39 44 43 38 39 45 49 48 47 48 48 49 49 46 43 42 42 42 41 40 39 38 38 37 37 38 39 40 42 42 42 41 39 38 37 37 38 38 38 38 37 35 34 34 35 35 34 34 36 37 38 39 39 39 39 39 40 42 43 43 43 42 38 36 37 39 40 38 36 33 30 30 32
Wind_Direction
228 226 226 226 227 227 229 231 228 220 210 206 203 194 186 186 193 192 182 173 164 158 159 160 161 160 160 157 147 141 144 156 178 197 204 210 210 194 196 196 178 164 151 142 140 143 156 179 201 216 221 223 226 228 231 235 235 231 228 225 225 230 235 245 254 256 258 261 267 278 291 296 310 330 337 338 336 335 335 333 332 330 326 324 323 323
230 232 232 228 225 225 226 228 229 224 210 202 201 193 184 183 185 184 179 170 162 162 163 163 165 163 162 160 152 146 148 159 183 197 205 216 220 213 212 218 211 195 177 164 157 154 158 171 186 204 219 226 227 228 229 232 235 234 232 229 229 235 242 249 252 255 257 257 265 274 277 284 299 312 317 319 320 322 323 322 321 318 316 316 318 320
232 235 233 226 221 221 222 224 227 225 213 201 199 195 188 185 183 180 178 172 167 167 166 165 169 168 165 164 161 160 157 157 175 192 203 215 220 217 221 231 234 224 206 192 181 174 172 174 180 189 200 214 222 224 226 230 234 235 234 232 234 237 242 247 250 252 254 256 265 271 275 284 295 302 306 308 310 311 310 310 309 308 309 310 312 314
234 235 230 224 221 220 221 222 224 225 215 201 198 198 192 190 188 184 182 178 174 173 172 173 175 172 169 167 165 169 170 167 176 192 203 210 214 215 224 234 239 242 233 217 207 202 195 192 190 189 189 194 203 210 218 229 237 239 237 236 238 240 241 245 249 251 254 259 265 268 273 282 289 296 299 301 303 302 301 302 302 303 303 304 306 307
232 232 228 224 222 221 221 223 224 224 216 201 198 199 195 197 194 187 186 185 182 180 179 182 183 176 169 165 163 171 178 180 187 201 210 213 214 215 221 229 233 241 243 233 225 223 218 214 209 204 199 196 197 200 205 220 236 243 245 247 249 248 247 249 250 254 259 263 265 269 275 282 288 293 296 297 298 297 297 299 301 302 304 305 305 306
228 227 227 225 222 221 221 223 225 224 218 204 198 198 197 199 197 191 191 192 191 188 183 188 190 178 167 164 166 169 174 185 196 207 218 217 214 216 219 226 232 237 242 241 236 232 231 231 229 226 223 216 211 207 205 212 228 240 247 253 257 258 259 260 259 258 262 265 269 273 279 284 288 291 293 293 293 294 296 298 301 303 305 307 306 304
224 223 225 225 223 221 221 222 224 224 221 207 193 196 200 200 200 196 195 197 199 192 186 195 195 183 176 173 174 178 182 188 188 196 227 230 217 217 221 229 236 239 241 242 241 238 238 240 239 239 239 239 234 228 222 218 224 235 245 253 260 265 267 268 267 266 268 270 273 277 281 285 288 290 291 291 291 292 295 297 300 302 304 305 305 303
221 219 224 226 223 223 223 223 223 223 222 207 190 198 202 203 205 200 198 201 202 196 194 201 199 192 192 187 187 192 194 192 181 184 225 236 218 215 217 229 245 250 247 246 243 241 242 242 243 244 245 247 247 246 241 234 232 237 242 249 255 260 263 266 268 270 271 274 276 279 283 286 288 290 290 290 290 291 293 295 298 300 301 303 303 303
221 218 223 227 225 225 226 224 223 225 223 208 197 204 205 206 208 203 202 206 207 207 205 204 204 205 203 197 199 202 201 195 182 176 183 194 214 224 223 228 246 261 261 257 251 245 243 243 244 246 248 250 251 250 249 247 245 245 245 247 250 254 258 262 266 269 271 274 276 279 282 285 287 287 287 286 287 288 290 292 295 298 300 300 302 304
220 218 220 226 225 225 227 223 221 224 224 214 207 209 208 209 210 207 207 209 214 216 211 206 211 218 212 200 204 211 208 199 182 169 161 172 210 234 236 237 245 257 263 260 255 250 247 245 244 244 246 248 247 246 249 250 249 248 248 250 252 255 259 263 266 269 271 273 276 279 281 283 284 284 283 283 283 285 288 291 294 297 297 298 302 306
218 217 218 223 224 222 221 220 219 222 223 220 216 214 213 214 214 214 213 214 220 220 211 208 214 227 224 207 209 219 214 201 187 178 177 183 193 198 221 250 253 245 243 246 249 250 249 248 248 247 244 243 243 245 248 249 249 249 252 255 258 260 263 264 266 269 271 273 275 278 280 282 283 283 283 284 285 287 290 294 296 297 296 297 302 305
215 216 217 221 222 219 217 216 216 219 221 221 219 216 216 218 217 219 220 220 226 222 213 214 221 232 235 215 211 219 212 203 199 194 192 185 175 176 204 238 253 242 233 233 245 251 254 255 254 250 245 243 245 248 251 251 250 252 255 259 264 267 267 268 269 271 272 274 276 277 280 283 285 287 288 289 291 294 297 299 298 297 296 298 302 304
215 215 216 219 221 218 215 214 214 217 219 220 221 216 216 220 219 220 223 224 229 227 220 224 231 236 238 210 198 207 206 205 207 211 205 187 170 174 191 218 237 238 229 229 247 257 263 268 266 260 252 248 248 250 253 253 252 252 255 261 266 269 270 271 273 274 274 275 275 277 281 286 290 292 294 295 297 298 300 300 298 297 297 300 303 303
217 215 215 217 220 218 216 214 214 215 218 220 222 218 216 219 220 221 223 225 230 231 227 231 237 237 231 195 189 199 203 205 210 218 209 192 184 184 191 211 224 225 223 229 247 257 264 271 273 270 261 252 249 251 253 255 254 254 257 263 268 269 269 271 274 276 276 275 275 279 285 290 293 295 297 298 299 301 301 300 298 297 298 301 303 303
218 216 214 215 219 219 217 216 215 216 220 223 225 223 221 222 223 224 226 227 231 234 233 235 239 233 204 177 186 194 199 203 209 215 212 212 212 202 204 217 216 209 217 234 247 254 259 260 260 264 265 258 253 254 256 258 260 261 263 265 267 268 268 272 275 275 274 273 276 282 289 294 296 298 300 301 303 305 304 303 301 300 300 301 302 302
218 217 214 216 220 221 219 217 215 215 218 222 226 227 225 225 227 229 231 231 233 237 237 238 241 229 194 179 186 192 198 205 212 213 216 224 225 221 226 232 220 205 211 233 247 256 256 247 245 257 266 265 261 260 260 261 264 265 266 267 267 268 270 275 277 273 270 272 277 285 291 295 297 300 303 305 306 307 305 303 302 302 302 302 301 301
220 217 214 216 221 222 222 219 216 215 217 219 223 226 227 227 227 230 233 233 234 237 238 240 242 237 227 213 198 197 204 212 221 223 224 230 233 237 246 252 239 220 214 228 238 250 250 240 245 263 273 273 270 268 265 264 265 267 269 271 270 270 271 273 272 269 269 273 280 288 293 295 298 302 305 306 306 305 304 303 301 301 301 301 300 299
223 220 216 215 219 222 222 221 218 216 218 220 223 226 227 226 226 227 231 232 232 236 239 240 240 241 241 232 213 212 220 223 231 236 237 240 245 248 254 258 249 233 226 228 230 242 249 248 257 269 274 276 276 274 270 265 265 267 270 271 270 269 268 266 267 269 274 278 283 288 291 294 298 301 303 303 304 304 303 302 300 300 298 298 298 297
223 222 218 215 218 222 222 222 220 218 217 220 223 225 225 226 226 226 228 231 232 234 239 241 241 240 241 238 228 228 231 229 233 240 239 241 250 254 256 261 253 242 241 243 245 253 255 255 265 272 273 275 278 277 275 271 268 267 266 266 267 266 264 265 268 273 275 278 281 285 289 293 296 298 300 301 302 302 301 299 299 299 298 297 297 295
224 223 220 216 217 221 222 222 222 220 218 219 222 223 224 226 229 229 231 234 235 236 239 241 243 242 240 240 238 237 238 236 234 238 240 244 254 256 260 265 259 253 253 255 259 261 258 257 267 275 273 273 278 279 278 278 274 265 257 256 258 259 262 264 266 268 270 274 281 285 288 289 289 292 296 297 298 300 300 300 300 301 301 300 298 296
225 224 223 219 218 220 221 221 222 222 221 220 221 222 222 224 228 230 231 234 236 238 241 243 246 247 244 243 243 241 244 246 245 244 243 247 258 264 267 263 259 261 254 251 254 253 252 259 268 274 271 270 276 281 282 280 273 261 249 245 246 249 254 257 258 263 270 277 283 284 285 285 286 292 297 296 297 302 305 304 303 302 301 300 298 297
226 226 224 221 220 220 221 222 223 224 224 223 223 224 224 224 227 229 231 232 234 236 240 243 246 249 248 244 242 241 245 250 255 253 244 239 251 266 269 258 258 264 254 242 247 250 250 257 267 272 272 270 274 279 279 274 263 249 239 234 235 240 246 252 258 266 274 280 283 284 286 287 290 297 300 301 304 309 311 309 305 301 298 295 296 298
227 227 226 223 221 221 221 223 225 225 226 226 226 226 226 226 227 230 232 233 235 236 238 241 245 248 249 245 242 240 242 248 254 255 243 231 240 252 260 258 259 265 254 238 239 245 247 253 262 269 273 275 275 273 268 261 247 235 232 231 236 247 253 258 264 270 276 282 285 289 292 294 298 306 310 310 311 312 311 308 303 298 294 291 294 298
229 228 228 226 223 221 221 223 225 226 226 226 227 227 226 226 226 229 233 236 238 238 239 241 244 246 248 248 247 245 244 246 250 252 242 230 235 242 250 257 257 256 251 242 236 239 245 252 259 266 273 277 277 271 262 255 246 241 242 247 254 263 267 271 276 279 284 288 291 295 298 301 309 318 321 316 311 308 303 299 297 294 293 293 294 296
231 231 230 228 224 221 219 220 222 225 226 226 227 228 228 227 227 228 231 234 237 239 239 241 244 245 246 248 249 250 253 254 254 255 247 232 231 238 245 252 251 246 247 246 242 243 248 254 258 264 270 275 277 272 264 258 257 256 258 262 267 272 276 281 283 286 289 290 292 296 300 308 316 317 315 308 304 302 298 295 294 294 295 295 294 296
233 233 231 229 227 224 222 221 222 224 226 226 226 227 228 229 229 228 229 231 234 237 238 239 242 244 245 246 246 248 255 258 259 262 256 240 234 240 243 244 245 246 249 248 246 247 249 251 255 262 267 270 270 268 264 261 261 262 266 270 274 278 282 286 287 289 291 291 293 296 301 308 311 307 303 301 300 298 295 294 295 295 294 293 292 294
235 235 234 233 232 230 227 225 224 224 227 229 228 227 226 227 229 230 230 231 233 236 237 239 241 243 243 244 244 245 248 251 253 259 260 249 242 247 247 241 241 247 249 246 243 243 244 248 254 260 262 261 261 263 263 262 262 262 267 275 281 285 288 290 291 293 294 294 296 301 304 306 305 303 300 300 301 299 297 295 294 294 296 294 291 289
236 237 237 237 237 235 231 227 224 223 226 230 232 231 229 228 229 229 230 230 231 234 237 239 240 241 241 241 241 243 246 248 250 255 260 254 247 252 250 240 238 243 245 245 244 241 243 249 255 258 256 253 255 259 260 261 262 262 268 279 287 292 294 294 297 297 297 299 303 308 310 308 306 303 300 300 304 304 305 304 298 297 300 296 291 288
237 238 238 238 239 238 233 228 224 223 224 226 230 233 232 230 230 230 230 230 230 233 237 240 240 240 240 240 240 243 247 250 249 250 255 253 248 248 241 231 233 239 243 251 255 250 248 251 255 257 255 253 254 256 257 259 262 266 274 283 289 295 297 299 302 302 301 304 308 312 313 311 308 306 304 307 309 307 308 309 303 302 305 303 297 289
239 238 238 238 238 238 234 228 224 222 221 221 223 228 230 231 232 232 232 231 232 234 237 240 241 240 240 240 241 243 247 251 248 241 241 246 246 239 231 229 234 240 244 252 258 256 252 253 257 259 262 264 261 259 258 258 262 271 281 286 289 293 298 301 303 303 302 304 305 308 311 312 312 312 313 314 312 308 308 306 304 307 311 314 309 292
239 238 237 236 237 236 233 226 221 219 218 218 219 221 225 228 230 231 232 232 233 234 237 239 240 239 237 237 239 241 244 248 246 237 231 235 238 233 229 232 238 242 247 252 256 258 258 259 263 266 269 271 270 270 267 262 266 281 291 292 291 292 295 298 299 299 300 300 300 304 308 312 314 316 317 317 315 315 314 309 308 311 313 316 317 306
237 238 236 235 234 233 229 223 219 217 216 216 216 217 220 223 226 228 229 231 232 234 236 238 239 238 235 234 235 237 239 242 241 233 226 226 227 226 228 234 240 246 252 257 260 263 264 263 265 268 269 270 273 277 276 273 278 290 295 297 297 293 291 294 297 297 299 300 300 303 308 312 315 317 318 318 318 320 320 314 311 314 313 311 314 313
235 235 235 233 232 230 226 221 219 218 217 217 217 217 219 221 223 226 227 228 230 232 234 235 237 237 235 233 233 235 238 238 234 227 224 223 224 226 231 238 244 249 253 259 263 263 262 262 263 262 264 268 274 278 279 280 285 289 292 296 297 294 291 293 297 300 301 302 303 306 308 311 314 316 318 318 316 316 317 312 310 312 312 311 311 311
237 235 233 232 231 230 227 224 221 219 220 223 222 221 220 220 222 225 227 227 228 230 232 233 234 236 234 232 232 235 237 233 226 222 223 225 225 228 234 240 245 250 254 258 261 259 260 264 264 263 265 268 271 274 277 282 286 288 291 293 294 294 293 294 297 300 302 304 305 306 307 309 312 315 316 315 312 312 314 312 311 313 313 313 311 309
239 236 232 230 230 230 228 226 224 222 224 225 223 219 218 219 221 225 227 228 227 228 230 231 231 233 233 231 231 234 232 226 219 218 220 223 225 229 235 240 244 249 253 256 259 259 261 263 262 262 265 267 269 271 276 281 284 287 289 290 291 292 292 294 297 298 300 302 304 305 306 308 311 312 312 311 310 311 312 311 313 317 316 313 311 309
239 237 231 227 228 230 229 228 227 226 226 225 221 217 217 219 221 224 227 228 227 227 228 229 229 231 232 231 231 230 226 220 217 218 218 221 226 231 236 239 242 245 248 249 251 252 253 254 254 257 262 267 270 272 274 278 281 284 286 288 290 291 292 295 298 297 299 302 304 305 306 307 309 310 309 310 310 309 309 310 313 315 313 310 309 307
238 238 234 229 227 229 230 230 229 229 229 229 224 220 218 220 221 224 228 229 228 227 227 227 227 229 231 232 230 227 224 222 221 221 221 223 229 234 237 238 239 241 240 239 241 244 246 249 254 260 265 268 269 269 271 274 278 281 285 288 291 292 293 296 297 296 299 302 304 306 306 306 307 308 308 308 308 307 308 310 312 312 309 306 306 303
235 238 238 232 226 226 229 231 232 231 231 231 228 224 222 223 224 226 229 230 229 227 226 224 225 228 231 232 230 229 229 227 224 223 225 228 232 236 238 238 237 239 240 241 244 246 248 253 258 263 265 266 265 265 269 272 275 279 285 290 293 293 293 295 296 297 299 301 304 307 307 306 305 305 306 306 304 304 306 308 310 309 307 306 305 300
234 237 238 231 224 224 227 230 232 233 232 230 228 226 225 226 228 229 231 231 230 227 225 223 224 228 229 229 230 231 232 230 227 226 228 231 234 237 240 240 239 239 242 245 247 248 250 254 258 261 264 265 264 266 269 271 274 279 284 290 293 292 291 294 297 298 300 302 305 307 306 305 304 303 303 302 301 301 304 306 308 307 308 309 306 299
234 237 236 228 222 223 226 228 231 233 233 231 228 226 227 228 230 233 233 232 230 227 223 221 224 228 229 229 231 231 230 229 228 227 228 230 233 238 242 243 242 242 244 246 247 248 250 253 256 259 263 264 266 268 270 272 276 280 284 289 292 290 290 293 296 297 299 303 305 305 304 303 301 300 299 298 298 299 302 304 305 306 308 311 308 300
234 237 236 228 222 223 225 226 230 233 234 233 229 226 226 228 230 235 236 234 231 226 222 221 225 230 232 232 232 231 229 229 227 226 228 231 235 239 243 245 246 246 246 246 247 248 250 253 257 260 262 264 266 268 270 273 278 281 284 289 291 290 291 293 295 297 299 302 303 303 301 299 298 297 295 295 296 298 300 302 302 304 308 312 309 300
233 237 238 231 222 221 223 225 228 232 235 233 227 223 224 229 233 238 239 235 229 224 222 222 225 230 232 233 233 230 229 228 228 229 232 235 238 242 245 248 250 251 250 250 250 250 252 255 258 260 261 264 267 270 273 277 281 283 286 289 289 291 293 294 295 296 297 299 300 300 298 295 294 294 293 294 296 297 298 299 300 302 307 311 309 297
233 236 240 236 226 220 222 224 223 226 232 230 222 219 222 227 232 235 235 231 227 223 221 222 225 228 230 231 230 228 229 231 234 236 238 240 242 244 246 247 249 250 251 250 249 249 250 252 255 258 261 264 268 271 274 278 281 284 287 289 290 292 294 295 294 294 294 295 296 296 295 293 293 292 292 293 295 296 297 297 299 302 307 311 309 295
236 238 242 242 231 220 219 221 220 220 225 224 217 215 219 223 225 227 227 227 225 222 221 224 226 228 229 228 228 229 232 236 238 237 236 236 237 239 241 241 240 242 243 244 246 250 253 257 260 263 265 266 268 271 274 277 281 285 288 291 292 292 294 295 295 293 292 291 291 291 292 292 291 290 291 292 293 294 295 296 299 303 306 309 308 298
240 241 245 246 235 222 216 218 220 220 221 219 215 215 217 218 217 217 218 221 223 222 222 226 229 229 229 229 230 231 233 233 233 234 235 234 234 235 236 236 236 238 242 248 255 261 263 265 268 269 270 269 269 272 276 278 279 283 289 291 291 290 293 297 296 293 290 287 286 287 289 289 289 289 290 291 292 293 293 295 298 301 304 306 307 303
243 244 248 248 239 227 220 218 219 219 217 215 214 214 215 213 209 209 210 212 216 218 219 223 227 229 229 230 232 234 235 235 236 239 242 243 243 244 243 241 239 241 247 255 262 266 266 267 269 269 271 272 272 274 279 281 280 283 289 291 290 288 290 294 294 291 288 285 284 285 286 286 286 287 288 289 290 290 291 294 296 298 302 304 305 303
239 242 246 248 241 233 225 219 218 218 217 216 215 215 216 212 206 203 204 206 209 213 217 220 224 227 229 232 235 238 239 240 241 242 243 244 245 249 250 247 243 245 252 258 260 260 262 264 266 267 272 277 278 279 283 284 284 285 288 289 287 286 287 288 288 287 285 283 283 284 285 285 285 286 286 287 287 288 290 292 295 298 301 303 303 300
237 240 243 245 242 237 229 219 213 213 216 217 215 214 214 213 207 202 203 206 209 212 217 220 223 227 230 233 236 238 239 240 241 241 241 241 242 246 249 248 246 249 253 255 255 258 263 267 270 273 276 279 281 282 284 285 284 284 285 285 284 283 283 283 282 283 283 283 283 283 283 283 284 284 284 285 286 288 291 293 295 298 299 300 298 294
237 239 241 241 241 241 234 225 218 214 214 215 214 211 210 210 208 206 206 210 213 216 219 222 224 227 231 233 235 237 239 239 239 240 240 240 241 244 246 248 248 248 250 254 260 267 272 275 277 278 279 280 281 281 281 280 281 281 282 282 282 282 281 280 280 282 283 282 282 282 282 282 282 283 285 287 288 289 290 293 296 298 298 296 291 284
234 234 236 237 238 240 239 236 232 226 217 211 211 210 207 205 205 207 211 214 217 219 221 224 225 227 228 228 230 232 235 237 238 240 241 242 244 245 246 247 249 251 255 261 267 271 273 275 277 279 280 281 281 279 278 277 277 278 278 279 280 280 280 280 280 281 281 280 280 280 280 281 283 285 285 285 285 287 289 293 296 297 296 290 283 277
229 229 230 231 231 232 234 236 238 235 226 214 208 208 207 203 199 201 208 214 219 222 223 225 227 228 228 226 225 227 231 235 238 240 241 243 245 247 249 251 254 257 261 264 267 269 270 272 276 278 279 280 279 279 278 276 276 276 276 277 278 278 278 279 278 278 277 277 278 279 280 283 288 287 280 277 280 287 292 295 295 293 289 285 282 281
Height
5880 5882 5884 5885 5888 5892 5894 5897 5899 5901 5903 5904 5906 5908 5910 5912 5912 5912 5912 5912 5912 5913 5914 5914 5916 5916 5916 5917 5917 5917 5918 5919 5920 5920 5921 5921 5921 5922 5922 5922 5922 5922 5921 5922 5922 5922 5922 5922 5923 5924 5924 5925 5926 5926 5926 5926 5927 5928 5928 5928 5928 5928 5929 5929 5929 5929 5930 5929 5929 5929 5929 5929 5929 5928 5928 5928 5928 5928 5927 5926 5926 5926 5926 5926 5926 5926
5878 5880 5882 5886 5889 5892 5894 5896 5897 5899 5900 5902 5904 5906 5908 5908 5910 5910 5911 5910 5910 5911 5912 5912 5914 5914 5914 5916 5916 5917 5918 5918 5920 5920 5920 5921 5921 5921 5921 5922 5922 5922 5922 5921 5921 5922 5922 5922 5922 5922 5924 5924 5925 5926 5926 5926 5926 5926 5927 5928 5928 5928 5928 5928 5928 5928 5928 5928 5928 5928 5928 5928 5928 5928 5928 5928 5927 5926 5926 5926 5926 5926 5926 5925 5924 5924
5875 5878 5882 5885 5887 5889 5890 5892 5894 5896 5898 5900 5902 5904 5905 5906 5907 5908 5908 5908 5908 5909 5910 5911 5912 5912 5913 5914 5916 5916 5917 5918 5918 5920 5920 5920 5920 5920 5920 5921 5922 5922 5922 5921 5921 5921 5922 5922 5922 5922 5922 5923 5924 5924 5924 5925 5926 5926 5926 5926 5926 5927 5927 5927 5927 5928 5928 5928 5928 5928 5928 5928 5928 5928 5927 5926 5926 5926 5926 5926 5925 5925 5925 5924 5924 5924
5873 5878 5882 5882 5884 5885 5887 5889 5891 5892 5895 5898 5900 5902 5904 5904 5905 5906 5906 5907 5907 5908 5908 5909 5910 5910 5912 5912 5914 5915 5916 5917 5918 5918 5919 5920 5920 5920 5920 5920 5920 5920 5920 5920 5920 5920 5921 5921 5921 5922 5922 5922 5922 5922 5923 5923 5924 5924 5925 5925 5926 5926 5926 5926 5926 5926 5927 5927 5927 5927 5927 5927 5927 5926 5926 5926 5926 5926 5925 5925 5924 5924 5924 5924 5924 5923
5872 5877 5879 5878 5880 5882 5884 5886 5888 5890 5893 5896 5898 5900 5902 5904 5904 5905 5905 5906 5906 5906 5906 5907 5908 5909 5910 5912 5912 5914 5915 5916 5917 5918 5918 5918 5918 5919 5919 5919 5919 5920 5920 5920 5920 5920 5920 5920 5920 5920 5920 5920 5920 5920 5921 5922 5922 5923 5924 5924 5924 5924 5925 5925 5925 5926 5926 5926 5926 5926 5926 5926 5926 5926 5926 5925 5925 5924 5924 5924 5924 5924 5923 5922 5922 5922
5868 5874 5876 5875 5876 5878 5880 5883 5885 5888 5890 5894 5897 5899 5902 5903 5903 5903 5903 5904 5904 5904 5904 5906 5906 5908 5908 5910 5911 5912 5914 5914 5916 5916 5916 5917 5918 5918 5918 5918 5918 5918 5918 5918 5918 5918 5918 5918 5918 5919 5919 5919 5919 5919 5920 5920 5920 5921 5922 5922 5923 5924 5924 5924 5924 5924 5925 5925 5925 5926 5926 5926 5925 5925 5924 5924 5924 5924 5924 5923 5922 5922 5922 5921 5921 5920
5864 5870 5871 5872 5873 5876 5878 5880 5882 5886 5888 5892 5896 5898 5900 5900 5900 5900 5901 5902 5902 5903 5904 5904 5905 5906 5906 5908 5908 5910 5910 5912 5913 5914 5914 5916 5916 5916 5917 5917 5917 5917 5916 5916 5916 5916 5916 5916 5917 5917 5918 5918 5918 5918 5918 5918 5919 5920 5920 5921 5922 5922 5922 5923 5923 5924 5924 5924 5924 5924 5924 5924 5924 5924 5924 5924 5923 5922 5922 5921 5921 5920 5920 5920 5919 5918
5860 5865 5866 5867 5870 5872 5873 5876 5880 5883 5886 5890 5894 5896 5896 5898 5898 5899 5900 5900 5900 5902 5902 5902 5903 5904 5904 5904 5906 5906 5908 5910 5911 5912 5913 5914 5914 5916 5916 5916 5916 5915 5915 5915 5915 5915 5915 5915 5916 5916 5916 5916 5917 5918 5918 5918 5918 5918 5919 5920 5920 5920 5921 5922 5922 5922 5922 5922 5922 5923 5923 5923 5923 5922 5922 5922 5921 5920 5920 5920 5919 5918 5918 5918 5916 5916
5858 5861 5863 5864 5866 5868 5870 5876 5880 5881 5884 5889 5892 5893 5894 5896 5897 5898 5898 5898 5898 5898 5898 5900 5901 5900 5901 5904 5904 5904 5906 5908 5909 5910 5912 5912 5913 5914 5914 5915 5914 5914 5914 5914 5914 5914 5914 5914 5914 5915 5916 5916 5916 5916 5916 5917 5918 5918 5918 5918 5918 5919 5920 5920 5920 5920 5920 5920 5921 5921 5922 5922 5921 5921 5920 5920 5919 5918 5918 5918 5917 5916 5916 5915 5914 5913
5854 5856 5859 5860 5861 5865 5870 5874 5876 5878 5882 5886 5889 5890 5891 5892 5893 5894 5894 5894 5894 5894 5895 5898 5898 5898 5900 5902 5902 5902 5904 5906 5907 5908 5910 5911 5912 5912 5914 5914 5914 5913 5913 5912 5912 5912 5912 5913 5913 5914 5914 5915 5916 5916 5916 5916 5916 5916 5916 5917 5917 5918 5918 5918 5918 5918 5918 5919 5919 5920 5920 5920 5919 5918 5918 5918 5917 5916 5916 5916 5915 5914 5914 5912 5912 5910
5847 5850 5853 5853 5856 5863 5868 5870 5873 5875 5878 5882 5884 5886 5888 5888 5889 5890 5890 5890 5890 5889 5892 5896 5896 5897 5898 5900 5900 5902 5904 5906 5905 5906 5906 5908 5909 5910 5912 5912 5912 5912 5912 5912 5912 5911 5911 5911 5912 5912 5913 5914 5914 5914 5914 5914 5914 5914 5915 5915 5916 5916 5916 5916 5916 5916 5917 5917 5917 5918 5918 5917 5916 5916 5916 5915 5914 5914 5914 5913 5912 5912 5910 5910 5909 5908
5840 5844 5846 5849 5854 5860 5862 5865 5868 5871 5874 5876 5878 5881 5884 5884 5885 5884 5885 5886 5884 5886 5892 5894 5894 5894 5894 5898 5900 5902 5904 5904 5902 5903 5904 5905 5906 5908 5910 5910 5911 5911 5911 5911 5910 5910 5910 5910 5910 5910 5911 5912 5912 5912 5912 5912 5912 5913 5913 5913 5914 5914 5914 5914 5914 5914 5914 5914 5915 5915 5915 5914 5914 5913 5912 5912 5912 5912 5910 5910 5909 5908 5908 5907 5906 5906
5834 5838 5842 5846 5850 5854 5856 5859 5863 5865 5867 5870 5872 5876 5878 5878 5880 5879 5880 5880 5879 5883 5890 5892 5892 5890 5891 5896 5899 5900 5902 5902 5902 5902 5902 5902 5904 5904 5906 5908 5908 5908 5909 5910 5910 5909 5908 5908 5908 5908 5909 5910 5910 5910 5910 5910 5910 5911 5911 5911 5912 5912 5912 5912 5912 5912 5912 5912 5912 5912 5912 5912 5911 5910 5910 5910 5910 5908 5908 5907 5906 5906 5905 5904 5904 5903
5830 5834 5838 5842 5844 5848 5850 5853 5856 5858 5861 5864 5866 5870 5872 5872 5873 5874 5874 5876 5877 5882 5887 5888 5888 5886 5889 5894 5896 5898 5900 5900 5901 5902 5901 5901 5901 5902 5903 5904 5904 5906 5906 5907 5908 5908 5907 5906 5906 5906 5907 5908 5908 5908 5908 5908 5908 5908 5909 5909 5910 5910 5910 5910 5910 5910 5910 5910 5910 5910 5910 5909 5908 5908 5908 5908 5907 5906 5905 5904 5904 5904 5902 5902 5902 5900
5826 5828 5832 5836 5838 5842 5846 5848 5853 5857 5860 5862 5864 5868 5869 5868 5870 5871 5872 5874 5876 5880 5884 5884 5883 5884 5888 5892 5893 5895 5897 5898 5899 5900 5900 5900 5900 5900 5900 5900 5901 5902 5904 5905 5905 5906 5906 5905 5905 5905 5905 5906 5906 5906 5906 5906 5906 5906 5906 5906 5906 5907 5908 5908 5908 5907 5907 5906 5907 5907 5907 5906 5906 5906 5906 5905 5904 5904 5902 5902 5902 5901 5900 5900 5900 5898
5820 5823 5829 5834 5836 5839 5843 5846 5850 5855 5858 5860 5862 5864 5864 5865 5870 5872 5872 5874 5876 5878 5879 5878 5878 5882 5886 5890 5890 5892 5894 5896 5896 5897 5898 5898 5898 5898 5899 5899 5900 5900 5901 5902 5903 5904 5904 5904 5904 5904 5904 5904 5904 5904 5904 5904 5904 5904 5904 5904 5904 5904 5904 5905 5905 5904 5904 5904 5905 5905 5904 5904 5904 5903 5903 5902 5902 5901 5900 5899 5898 5898 5898 5897 5896 5896
5816 5819 5826 5830 5831 5835 5840 5843 5847 5850 5851 5854 5856 5856 5858 5864 5869 5869 5869 5871 5873 5874 5872 5872 5874 5878 5882 5886 5888 5890 5892 5894 5896 5896 5896 5897 5897 5898 5898 5898 5898 5898 5900 5900 5901 5902 5902 5902 5902 5902 5902 5902 5902 5902 5902 5902 5902 5901 5901 5902 5902 5902 5902 5903 5902 5902 5902 5902 5903 5903 5902 5902 5901 5900 5900 5900 5899 5898 5898 5896 5896 5895 5894 5894 5894 5893
5813 5816 5822 5824 5826 5830 5836 5840 5843 5845 5847 5849 5850 5852 5858 5862 5864 5864 5866 5866 5867 5868 5866 5868 5872 5874 5876 5880 5884 5888 5890 5892 5894 5894 5896 5896 5896 5896 5897 5898 5898 5898 5898 5898 5898 5899 5900 5900 5900 5900 5900 5900 5900 5900 5900 5900 5900 5900 5899 5899 5899 5900 5900 5900 5900 5900 5900 5900 5901 5900 5900 5900 5899 5898 5898 5897 5896 5896 5894 5893 5892 5892 5892 5891 5890 5890
5808 5810 5815 5819 5822 5825 5830 5833 5836 5838 5842 5843 5846 5852 5855 5855 5856 5859 5860 5858 5861 5862 5862 5864 5867 5869 5872 5876 5880 5884 5886 5888 5891 5892 5893 5894 5894 5896 5896 5896 5896 5896 5896 5896 5897 5897 5898 5898 5898 5898 5898 5898 5898 5898 5898 5898 5898 5898 5897 5897 5897 5898 5898 5898 5898 5898 5898 5898 5898 5898 5898 5897 5896 5896 5895 5894 5893 5892 5892 5890 5889 5888 5888 5888 5887 5886
5802 5804 5808 5813 5816 5818 5821 5824 5827 5832 5835 5838 5841 5845 5848 5849 5852 5854 5856 5855 5858 5858 5858 5860 5862 5862 5868 5873 5878 5881 5884 5886 5888 5890 5890 5892 5892 5893 5893 5894 5894 5894 5894 5894 5895 5896 5896 5896 5896 5896 5896 5896 5896 5896 5896 5896 5896 5896 5895 5895 5896 5896 5896 5896 5896 5896 5896 5896 5896 5895 5894 5894 5893 5892 5892 5891 5890 5889 5888 5887 5886 5885 5884 5884 5882 5882
5798 5799 5803 5808 5810 5811 5812 5816 5820 5827 5830 5832 5835 5836 5840 5844 5846 5848 5852 5852 5854 5854 5856 5857 5856 5857 5865 5872 5874 5878 5880 5882 5884 5886 5888 5889 5890 5890 5890 5891 5892 5892 5893 5893 5893 5894 5894 5894 5894 5894 5894 5894 5894 5894 5894 5893 5893 5893 5893 5893 5893 5893 5893 5893 5893 5893 5893 5893 5892 5892 5892 5891 5890 5890 5889 5888 5887 5886 5886 5884 5884 5882 5880 5879 5878 5878
5792 5794 5798 5802 5804 5806 5810 5813 5818 5823 5825 5828 5831 5832 5836 5840 5842 5844 5846 5846 5848 5850 5850 5852 5852 5853 5861 5868 5872 5874 5877 5880 5882 5883 5885 5886 5887 5888 5888 5889 5890 5890 5891 5892 5892 5892 5892 5892 5892 5892 5892 5892 5892 5892 5892 5891 5891 5891 5890 5891 5891 5891 5891 5890 5890 5891 5890 5890 5890 5890 5888 5888 5888 5887 5886 5885 5884 5884 5884 5882 5880 5878 5877 5876 5874 5874
5789 5790 5792 5796 5799 5804 5808 5810 5812 5816 5818 5822 5826 5828 5833 5837 5838 5840 5840 5841 5845 5846 5846 5848 5848 5850 5856 5862 5868 5871 5874 5876 5878 5880 5882 5884 5884 5886 5886 5886 5887 5888 5888 5889 5889 5889 5889 5889 5890 5889 5889 5890 5890 5890 5889 5889 5888 5888 5888 5888 5889 5888 5888 5888 5888 5888 5888 5888 5887 5886 5886 5886 5885 5885 5884 5883 5882 5882 5880 5878 5876 5874 5874 5872 5870 5870
5785 5784 5787 5791 5796 5800 5802 5804 5806 5808 5811 5814 5817 5822 5826 5828 5833 5836 5837 5840 5842 5841 5843 5845 5844 5846 5852 5858 5864 5868 5870 5873 5874 5876 5879 5880 5882 5883 5884 5884 5885 5886 5886 5886 5886 5886 5886 5886 5887 5886 5886 5886 5887 5886 5886 5886 5886 5886 5886 5886 5886 5886 5886 5886 5886 5886 5885 5884 5884 5884 5883 5884 5884 5883 5882 5880 5879 5878 5876 5874 5872 5870 5870 5868 5866 5866
5780 5782 5784 5786 5790 5792 5794 5795 5798 5800 5804 5806 5810 5814 5818 5823 5828 5832 5833 5836 5835 5834 5839 5841 5839 5842 5850 5856 5862 5864 5866 5868 5871 5872 5875 5877 5878 5880 5881 5882 5882 5883 5883 5884 5884 5884 5884 5884 5884 5884 5884 5884 5884 5884 5884 5884 5883 5883 5883 5883 5884 5883 5882 5882 5882 5882 5882 5881 5880 5880 5880 5881 5880 5878 5878 5877 5876 5874 5872 5870 5868 5866 5865 5864 5862 5860
5776 5778 5780 5780 5783 5786 5788 5790 5793 5796 5800 5802 5804 5808 5812 5816 5820 5823 5826 5828 5826 5828 5833 5834 5834 5840 5848 5853 5858 5860 5862 5865 5868 5870 5871 5873 5875 5877 5878 5879 5880 5880 5880 5880 5881 5882 5882 5882 5882 5882 5882 5882 5882 5881 5881 5881 5880 5880 5880 5880 5880 5880 5880 5879 5879 5878 5878 5878 5878 5878 5878 5878 5876 5872 5872 5872 5871 5869 5866 5864 5864 5862 5860 5860 5858 5856
5773 5774 5775 5776 5779 5782 5786 5790 5794 5796 5796 5797 5800 5804 5806 5810 5812 5816 5820 5820 5820 5824 5826 5828 5833 5839 5844 5848 5853 5856 5859 5862 5864 5866 5868 5870 5872 5873 5874 5876 5876 5876 5877 5878 5878 5878 5879 5878 5878 5880 5880 5880 5879 5878 5878 5878 5878 5878 5878 5878 5878 5877 5877 5876 5876 5876 5876 5875 5875 5875 5874 5872 5870 5868 5866 5866 5866 5864 5862 5860 5860 5858 5856 5854 5853 5852
5768 5770 5772 5774 5776 5780 5785 5788 5790 5791 5791 5794 5797 5800 5802 5805 5808 5810 5811 5814 5818 5820 5820 5824 5832 5836 5839 5844 5849 5852 5855 5858 5860 5864 5865 5866 5868 5870 5870 5872 5872 5874 5874 5874 5875 5876 5876 5876 5876 5876 5877 5876 5876 5876 5876 5876 5876 5876 5876 5875 5874 5874 5874 5874 5874 5873 5872 5872 5872 5872 5870 5868 5866 5864 5861 5861 5862 5859 5857 5856 5856 5853 5851 5849 5848 5847
5764 5766 5770 5772 5773 5776 5781 5784 5786 5786 5786 5788 5792 5795 5798 5801 5802 5804 5806 5811 5815 5814 5816 5823 5830 5831 5835 5841 5845 5848 5852 5854 5858 5860 5862 5863 5864 5866 5866 5868 5869 5870 5871 5872 5872 5872 5873 5873 5874 5874 5874 5874 5874 5874 5874 5874 5874 5873 5873 5872 5872 5872 5872 5872 5871 5870 5870 5869 5868 5868 5866 5864 5862 5860 5858 5857 5857 5854 5852 5852 5850 5848 5846 5844 5842 5840
5760 5763 5766 5768 5769 5772 5776 5778 5780 5780 5781 5782 5785 5789 5792 5796 5798 5800 5804 5808 5810 5811 5814 5821 5824 5826 5832 5838 5841 5845 5848 5850 5854 5856 5858 5860 5861 5862 5864 5864 5866 5867 5868 5869 5870 5870 5870 5870 5870 5870 5870 5871 5871 5871 5871 5871 5871 5871 5870 5870 5870 5870 5870 5869 5868 5868 5867 5866 5866 5864 5863 5861 5859 5858 5855 5854 5852 5850 5848 5847 5845 5844 5842 5838 5836 5835
5756 5758 5761 5763 5765 5768 5771 5774 5774 5775 5776 5778 5780 5782 5786 5790 5792 5795 5798 5802 5805 5808 5812 5816 5817 5820 5827 5833 5837 5840 5843 5846 5850 5852 5854 5856 5858 5858 5860 5862 5863 5864 5865 5866 5866 5867 5867 5867 5867 5867 5868 5868 5868 5868 5868 5868 5868 5868 5868 5867 5867 5868 5867 5867 5866 5865 5864 5864 5862 5860 5859 5858 5856 5854 5852 5850 5846 5845 5845 5844 5842 5841 5839 5836 5834 5832
5750 5754 5756 5758 5760 5762 5766 5768 5768 5770 5772 5772 5773 5776 5780 5783 5786 5789 5793 5796 5800 5804 5808 5810 5810 5814 5823 5830 5832 5834 5838 5842 5845 5848 5850 5852 5854 5855 5856 5858 5860 5860 5862 5862 5863 5864 5864 5864 5864 5864 5864 5864 5864 5864 5864 5865 5865 5865 5864 5864 5864 5864 5864 5864 5863 5862 5861 5860 5858 5857 5855 5854 5852 5851 5848 5846 5844 5842 5843 5842 5840 5838 5836 5834 5832 5830
5744 5748 5750 5752 5754 5758 5762 5762 5763 5764 5764 5763 5768 5773 5776 5778 5782 5784 5788 5791 5795 5799 5802 5803 5806 5812 5820 5824 5826 5830 5834 5838 5842 5844 5846 5848 5850 5852 5854 5855 5856 5858 5858 5859 5860 5860 5860 5860 5860 5860 5860 5860 5860 5860 5861 5861 5862 5861 5861 5861 5861 5861 5860 5860 5859 5858 5857 5856 5854 5852 5850 5849 5848 5847 5844 5842 5840 5840 5840 5838 5836 5834 5832 5830 5828 5826
5739 5742 5744 5748 5751 5754 5757 5758 5760 5759 5758 5761 5768 5773 5774 5775 5778 5780 5782 5786 5790 5793 5795 5798 5804 5809 5814 5819 5822 5826 5830 5834 5838 5840 5842 5844 5846 5848 5850 5852 5853 5854 5855 5856 5856 5856 5856 5856 5856 5856 5856 5857 5857 5856 5856 5857 5857 5857 5857 5857 5857 5856 5856 5856 5854 5854 5852 5852 5850 5848 5846 5845 5844 5842 5840 5838 5836 5835 5834 5834 5832 5830 5826 5824 5822 5820
5734 5736 5740 5742 5746 5750 5753 5755 5756 5754 5756 5762 5768 5770 5770 5772 5774 5776 5778 5782 5785 5788 5791 5796 5800 5805 5810 5814 5819 5822 5826 5830 5832 5834 5836 5839 5842 5844 5846 5848 5849 5850 5851 5851 5852 5852 5852 5852 5852 5852 5852 5852 5852 5852 5852 5852 5852 5852 5852 5852 5852 5852 5852 5852 5850 5850 5848 5846 5845 5843 5842 5840 5839 5838 5836 5834 5832 5830 5830 5828 5826 5824 5822 5820 5818 5817
5730 5731 5734 5738 5742 5746 5749 5750 5750 5750 5754 5760 5764 5765 5767 5769 5770 5772 5774 5776 5780 5784 5788 5792 5798 5802 5806 5810 5815 5818 5822 5824 5826 5829 5832 5834 5836 5840 5842 5843 5844 5846 5846 5846 5846 5847 5848 5848 5848 5848 5848 5848 5848 5848 5848 5848 5848 5848 5848 5848 5848 5848 5848 5847 5846 5844 5843 5842 5840 5839 5838 5836 5834 5833 5830 5828 5826 5826 5825 5824 5822 5820 5819 5818 5816 5814
5726 5727 5730 5734 5737 5740 5743 5744 5745 5748 5754 5758 5760 5762 5764 5766 5768 5769 5770 5772 5776 5780 5784 5790 5795 5799 5802 5807 5811 5814 5817 5820 5822 5824 5827 5830 5832 5835 5836 5838 5840 5840 5840 5840 5840 5842 5842 5842 5842 5843 5844 5844 5844 5844 5844 5844 5844 5844 5844 5844 5844 5844 5843 5842 5841 5840 5838 5837 5836 5834 5832 5830 5829 5827 5825 5824 5822 5820 5819 5818 5818 5816 5816 5814 5812 5810
5722 5724 5726 5730 5732 5734 5738 5740 5742 5746 5750 5754 5757 5759 5761 5763 5765 5766 5767 5768 5772 5776 5782 5788 5792 5796 5800 5804 5807 5810 5812 5814 5816 5820 5823 5826 5828 5830 5832 5833 5834 5834 5834 5835 5836 5837 5838 5838 5838 5839 5840 5840 5840 5840 5840 5840 5840 5840 5840 5839 5839 5838 5838 5837 5836 5834 5832 5832 5830 5828 5826 5824 5823 5822 5820 5818 5817 5814 5814 5814 5813 5812 5811 5809 5807 5805
5718 5720 5723 5726 5727 5730 5732 5734 5736 5741 5746 5750 5753 5756 5758 5760 5762 5764 5763 5764 5768 5774 5780 5785 5790 5793 5796 5800 5802 5806 5808 5810 5812 5816 5820 5822 5824 5826 5827 5828 5829 5830 5830 5830 5832 5832 5832 5832 5834 5834 5835 5836 5836 5836 5836 5836 5835 5835 5835 5835 5834 5834 5832 5831 5830 5828 5826 5825 5824 5822 5820 5818 5816 5816 5814 5814 5812 5810 5809 5808 5808 5806 5806 5804 5802 5800
5714 5717 5720 5721 5723 5726 5728 5729 5732 5737 5742 5745 5748 5751 5754 5757 5759 5759 5758 5760 5767 5773 5777 5782 5786 5789 5792 5796 5798 5801 5804 5806 5809 5812 5815 5818 5819 5820 5822 5823 5824 5824 5824 5825 5826 5826 5826 5828 5828 5830 5831 5832 5832 5832 5830 5830 5830 5830 5830 5830 5829 5828 5827 5826 5824 5822 5820 5819 5817 5816 5814 5812 5810 5810 5809 5808 5807 5806 5804 5804 5802 5801 5800 5798 5797 5796
5710 5713 5716 5718 5720 5722 5724 5726 5730 5734 5737 5740 5744 5748 5750 5752 5754 5754 5756 5760 5766 5771 5774 5778 5783 5786 5788 5792 5794 5798 5800 5802 5806 5808 5810 5812 5814 5816 5817 5818 5818 5820 5820 5820 5821 5822 5822 5823 5824 5826 5827 5826 5826 5826 5825 5825 5826 5826 5826 5824 5824 5822 5822 5820 5818 5817 5815 5813 5811 5810 5808 5806 5805 5804 5803 5802 5802 5800 5800 5798 5797 5796 5795 5794 5792 5791
5706 5709 5712 5715 5716 5718 5720 5724 5726 5730 5733 5736 5740 5744 5746 5748 5750 5752 5755 5759 5764 5767 5771 5776 5780 5782 5786 5788 5790 5794 5796 5799 5802 5804 5806 5808 5809 5810 5812 5813 5814 5815 5816 5816 5816 5818 5818 5820 5821 5822 5822 5821 5821 5820 5820 5820 5821 5820 5820 5819 5818 5817 5816 5814 5812 5811 5809 5808 5806 5804 5802 5800 5799 5798 5798 5797 5796 5795 5794 5792 5792 5790 5790 5789 5788 5786
5702 5704 5706 5711 5714 5716 5717 5720 5722 5726 5729 5732 5736 5740 5742 5744 5747 5750 5754 5756 5759 5764 5768 5772 5776 5779 5781 5784 5786 5790 5792 5795 5798 5799 5801 5802 5804 5806 5807 5808 5809 5810 5810 5811 5812 5813 5814 5815 5816 5816 5816 5816 5815 5815 5815 5815 5816 5816 5815 5814 5812 5811 5810 5808 5806 5804 5803 5802 5800 5798 5796 5794 5794 5793 5792 5792 5790 5790 5788 5787 5786 5785 5784 5783 5782 5782
5698 5700 5702 5706 5710 5712 5714 5716 5720 5722 5725 5728 5732 5736 5738 5740 5743 5747 5750 5752 5756 5760 5764 5767 5771 5774 5777 5780 5782 5784 5787 5790 5792 5794 5796 5798 5799 5800 5801 5802 5803 5804 5805 5806 5806 5808 5808 5809 5810 5810 5810 5810 5810 5809 5810 5810 5810 5810 5809 5808 5806 5805 5803 5801 5800 5798 5796 5794 5794 5792 5790 5790 5788 5788 5788 5786 5786 5784 5783 5782 5780 5780 5779 5778 5778 5776
5692 5696 5698 5701 5705 5708 5711 5714 5717 5720 5722 5725 5729 5732 5733 5736 5738 5742 5746 5749 5752 5756 5760 5763 5766 5770 5772 5775 5777 5780 5782 5784 5786 5788 5790 5792 5794 5794 5795 5796 5796 5798 5799 5800 5801 5802 5803 5804 5804 5804 5804 5804 5804 5804 5804 5804 5804 5804 5802 5801 5800 5798 5796 5794 5792 5790 5789 5788 5788 5786 5786 5784 5784 5783 5782 5781 5780 5778 5778 5777 5776 5775 5774 5774 5773 5772
5688 5692 5694 5696 5700 5705 5708 5710 5714 5716 5718 5720 5724 5726 5729 5732 5734 5737 5740 5744 5748 5752 5756 5758 5762 5764 5768 5770 5772 5774 5776 5778 5780 5782 5784 5786 5788 5788 5789 5790 5790 5792 5794 5795 5796 5796 5797 5798 5798 5799 5799 5798 5798 5798 5798 5798 5798 5796 5795 5794 5793 5792 5790 5788 5786 5784 5783 5782 5782 5781 5780 5780 5779 5778 5776 5776 5774 5773 5772 5772 5771 5770 5770 5768 5768 5767
5686 5688 5690 5692 5696 5702 5706 5708 5712 5714 5714 5716 5718 5722 5725 5728 5730 5732 5734 5738 5742 5747 5750 5754 5757 5760 5762 5764 5766 5769 5771 5774 5776 5777 5778 5780 5782 5783 5784 5784 5785 5787 5789 5790 5790 5791 5792 5793 5794 5794 5794 5792 5792 5792 5792 5791 5790 5790 5788 5786 5785 5784 5783 5782 5781 5780 5778 5778 5777 5776 5775 5774 5773 5772 5771 5770 5768 5768 5767 5766 5766 5765 5764 5764 5762 5762
5684 5686 5688 5690 5692 5696 5702 5706 5708 5709 5710 5712 5714 5718 5721 5724 5726 5728 5731 5734 5738 5742 5746 5748 5751 5754 5756 5758 5761 5764 5766 5768 5770 5772 5774 5775 5776 5778 5778 5779 5780 5782 5784 5785 5786 5787 5788 5788 5788 5788 5786 5786 5785 5784 5784 5784 5783 5782 5780 5779 5778 5777 5776 5776 5776 5774 5774 5772 5772 5770 5769 5768 5767 5766 5766 5764 5764 5763 5762 5762 5761 5760 5760 5758 5758 5757
5680 5682 5684 5686 5688 5692 5696 5701 5703 5704 5706 5708 5710 5714 5716 5720 5722 5725 5728 5731 5734 5738 5740 5743 5746 5748 5750 5752 5756 5758 5760 5762 5764 5766 5768 5769 5770 5772 5774 5775 5776 5778 5779 5780 5781 5781 5782 5782 5781 5780 5780 5780 5779 5778 5778 5778 5776 5776 5774 5773 5772 5772 5771 5770 5770 5770 5768 5768 5766 5764 5763 5762 5760 5760 5760 5759 5758 5758 5758 5756 5756 5755 5754 5753 5752 5752
5676 5678 5681 5684 5686 5688 5692 5697 5700 5702 5704 5706 5708 5710 5714 5716 5718 5721 5724 5728 5730 5734 5736 5738 5740 5742 5744 5746 5750 5752 5754 5756 5758 5760 5762 5764 5766 5767 5768 5770 5772 5772 5774 5774 5774 5774 5775 5775 5775 5774 5774 5774 5774 5774 5772 5772 5770 5770 5768 5767 5766 5766 5766 5765 5764 5764 5763 5762 5760 5759 5758 5756 5754 5754 5754 5754 5752 5752 5752 5751 5750 5750 5749 5748 5748 5748
5672 5675 5678 5680 5682 5685 5688 5692 5695 5698 5700 5702 5704 5707 5710 5712 5714 5716 5719 5722 5724 5728 5730 5732 5734 5736 5739 5742 5744 5746 5748 5750 5752 5755 5757 5758 5760 5762 5763 5764 5766 5766 5768 5768 5768 5769 5769 5769 5769 5769 5769 5768 5768 5768 5766 5765 5764 5764 5762 5762 5760 5760 5760 5760 5759 5758 5758 5756 5756 5754 5752 5751 5750 5748 5746 5746 5746 5746 5746 5745 5744 5744 5744 5744 5744 5743